A Soyuz SL4 rocket body that was launched on the 21st June, 2011, from the Baikonur Cosmodrome, Kazakhstan, for the Progress M-11M/43P mission is predicted to re-enter the Earths atmosphere on the 23rd June, 2011 @ 23:45 GMT ± 24 hours.
SL4 RB 1 37680U 11027B 11173.21609078 .03008298 12127-4 65225-3 0 59 2 37680 051.6156 135.5251 0019577 081.3968 278.8712 16.29170877 100
Period: - minutesInclination: 51.6°Apogee: - kmPerigee: - km Revolution Number: 39Predicted Location: 3.5°N, 221.3°E